Simultaneous Nadir Overpasses (SNOs) Predictions

Prediction of SNOs between GOES-16 and METOP-C Satellite Orbit:

Table of predicted SNOs for the next 14.0 days since TLE Epoch: 1/9/2021
Index Date Time (GOES-16) GOES-16 Lat,Lon METOP-C Lat,Lon Distance(km) Time Diff (sec)
1 01/10/2021 02:28:06 -0.00, -75.17 0.15, -74.42 85.56 80
2 01/11/2021 14:46:57 0.01, -75.20 0.86, -78.97 430.55 80
3 01/12/2021 14:26:19 0.01, -75.20 -0.29, -73.99 138.86 80
4 01/14/2021 02:48:00 -0.01, -75.18 -0.75, -78.58 387.43 80
5 01/15/2021 02:24:40 -0.01, -75.19 0.34, -73.58 182.35 80
6 01/16/2021 14:46:12 0.01, -75.23 0.67, -78.14 332.29 80
7 01/17/2021 14:22:53 0.01, -75.24 -0.49, -73.16 238.18 80
8 01/19/2021 02:44:35 -0.01, -75.24 -0.56, -77.75 286.32 80
9 01/20/2021 02:21:15 -0.01, -75.25 0.54, -72.75 284.48 80
10 01/21/2021 14:42:46 0.01, -75.31 0.47, -77.31 228.90 80
11 01/22/2021 14:19:28 0.01, -75.32 -0.68, -72.33 342.25 80
